Guadalajara Don Miguel, Mexico

5:01 PM CDT on July 25, 2017 (GMT -0500)
Guadalajara Don Miguel

Weather History for MMGL - November, 2012

Change the Weather History Date:

Thursday, November 29, 2012

  Actual Average Record
Temperature  
Mean Temperature 63 °F -  
Max Temperature 78 °F 73 °F 80 °F (2004)
Min Temperature 48 °F 38 °F 30 °F (1999)
Degree Days  
Heating Degree Days 2    
Growing Degree Days 13 (Base 50)    
Moisture  
Dew Point 46 °F    
Average Humidity 57    
Maximum Humidity 93    
Minimum Humidity 28    
Precipitation  
Precipitation 0.00 in - - ()
Sea Level Pressure  
Sea Level Pressure 30.15 in    
Wind  
Wind Speed 4 mph ()    
Max Wind Speed 14 mph    
Max Gust Speed -    
Visibility 8.3 miles    
Events      
Averages and records for this station are not official NWS values.
T = Trace of Precipitation, MM = Missing Value Source: Averaged Metar Reports

Daily Weather History Graph

Daily Weather History Graph

Search for Another Location

Airport or City:

Trip Planner

Search our weather history database for the weather conditions in past years. The results will help you decide how hot, cold, wet, or windy it might be!

Date:

Astronomy

Nov. 29, 2012 Rise Set
Actual Time 7:11 AM CST 6:11 PM CST
Civil Twilight 6:48 AM CST 6:35 PM CST
Nautical Twilight 6:20 AM CST 7:02 PM CST
Astronomical Twilight 5:54 AM CST 7:29 PM CST
Moon 7:16 PM CST (11/29) 7:59 AM CST (11/29)
Length of Visible Light 11h 47m
Length of Day
10h 59m
Full, 99% of the Moon is Illuminated
Nov 29
Full
Dec 6
Last Quarter
Dec 13
New
Dec 19
First Quarter
Dec 28
Full

Hourly Weather History & Observations

Time (CST) Temp. Dew Point Humidity Pressure Visibility Wind Dir Wind Speed Gust Speed Precip Events Conditions
12:52 AM 53.6 °F 48.2 °F 82% 30.27 in 10.0 mi ESE 3.5 mph - N/A   Clear
1:52 AM 51.8 °F 46.4 °F 82% 30.27 in 7.0 mi ESE 4.6 mph - N/A   Clear
2:51 AM 53.6 °F 46.4 °F 77% 29.98 in 7.0 mi SSE 3.5 mph - N/A   Clear
3:53 AM 48.2 °F 44.6 °F 87% 30.26 in 7.0 mi Calm Calm - N/A   Clear
4:53 AM 48.2 °F 46.4 °F 93% 30.26 in 7.0 mi Calm Calm - N/A   Clear
5:49 AM 48.2 °F 46.4 °F 93% 30.01 in 7.0 mi Calm Calm - N/A   Clear
6:52 AM 48.2 °F 44.6 °F 87% 30.27 in 6.0 mi South 3.5 mph - N/A   Clear
7:49 AM 50.0 °F 46.4 °F 87% 30.29 in 6.0 mi Calm Calm - N/A   Clear
8:51 AM 59.0 °F 48.2 °F 67% 30.07 in 6.0 mi Calm Calm - N/A   Clear
9:51 AM 64.4 °F 50.0 °F 59% 30.32 in 6.0 mi Calm Calm - N/A   Clear
10:50 AM 69.8 °F 51.8 °F 53% 30.30 in 6.0 mi ENE 5.8 mph - N/A   Clear
11:48 AM 73.4 °F 50.0 °F 44% 30.02 in 6.0 mi ENE 6.9 mph - N/A   Clear
12:47 PM 75.2 °F 46.4 °F 36% 30.23 in 8.0 mi ESE 10.4 mph - N/A   Clear
1:49 PM 78.8 °F 44.6 °F 30% 30.19 in 8.0 mi East 10.4 mph - N/A   Clear
2:44 PM 78.8 °F 44.6 °F 30% 29.88 in 10.0 mi NNW 10.4 mph - N/A   Partly Cloudy
3:50 PM 78.8 °F 44.6 °F 30% 30.14 in 10.0 mi WNW 13.8 mph - N/A   Scattered Clouds
4:16 PM 78.8 °F 42.8 °F 28% 30.13 in 10.0 mi West 3.5 mph - N/A   Scattered Clouds
4:47 PM 78.8 °F 42.8 °F 28% 30.13 in 10.0 mi SE 4.6 mph - N/A   Scattered Clouds
5:51 PM 77.0 °F 42.8 °F 29% 29.90 in 10.0 mi West 5.8 mph - N/A   Scattered Clouds
6:48 PM 71.6 °F 44.6 °F 38% 30.16 in 10.0 mi ESE 6.9 mph - N/A   Mostly Cloudy
7:55 PM 69.8 °F 46.4 °F 43% 30.19 in 10.0 mi SSE 5.8 mph - N/A   Scattered Clouds
8:50 PM 68.0 °F 46.4 °F 46% 29.97 in 10.0 mi West 5.8 mph - N/A   Mostly Cloudy
9:42 PM 62.6 °F 44.6 °F 52% 30.22 in 10.0 mi West 4.6 mph - N/A   Scattered Clouds
10:47 PM 59.0 °F 42.8 °F 55% 30.23 in 10.0 mi SSW 3.5 mph - N/A   Scattered Clouds
11:48 PM 57.2 °F 42.8 °F 59% 29.98 in 10.0 mi Calm Calm - N/A   Scattered Clouds